Regional Weather Roundup
Issued by NWS

Home | Current Version | Previous Version | Text Only | Print | Product List | Glossary Off
Versions: 1 2 3 4 5 6 7 8 9 10 11 12 13 14 15 16 17 18 19 20 21 22 23 24 25 26 27 28 29 30 31 32 33 34 35 36 37 38 39 40 41 42 43

000
ASUS45 KSLC 261310
RWRUT

UTAH REGIONAL WEATHER ROUNDUP
NATIONAL WEATHER SERVICE SALT LAKE CITY UT
600 AM MST FRI DEC 26 2014

UTZ001>011-023>025-261400-

NORTHERN UTAH

CITY           SKY/WX    TMP DP  RH WIND       PRES   REMARKS
BRIGHAM CITY   CLOUDY    25  17  72 S6        29.94R WCI  18
HILL AFB       MOCLDY    25  15  67 NW6       29.90R WCI  18
LOGAN          LGT SNOW  19  16  88 CALM      29.96R FOG
OGDEN          MOCLDY    24  19  81 W6        29.90R WCI  17
PROVO AIRPORT  MOCLDY    25  18  74 NE3       29.87R
SALT LAKE CITY MOCLDY    24  17  74 N3        29.91R
VERNAL         CLOUDY    22   9  57 NE10      29.81R WCI  11
WENDOVER       MOCLDY    27  12  54 NW21G28   29.98S WCI  13
HEBER CITY     CLOUDY    21  12  68 E8G17     29.83R WCI  12
WEST JORDAN    MOCLDY    21  21 100 NW8       29.90R WCI  12

$$

UTZ012>022-026-027-261400-

SOUTHERN/CENTRAL UTAH

CITY           SKY/WX    TMP DP  RH WIND       PRES   REMARKS
BLANDING       CLEAR     17  14  90 NW6       29.78S WCI   8
BRYCE CANYON   CLOUDY    13   8  81 N12       29.75R WCI  -1
CEDAR CITY     PTCLDY    19  15  84 N13       29.86R WCI   6
DELTA          CLOUDY    24  20  84 NW15      29.90R WCI  11
MILFORD        LGT SNOW  23  20  88 N10       29.90R FOG     WCI  12
MOAB/CYNLANDS  LGT SNOW  24  23  96 NW9       29.77R FOG     WCI  14
PRICE          PTCLDY    23   9  55 NW9       29.74R WCI  13
ST GEORGE      PTSUNNY   28  18  64 SE6       29.95R WCI  22
KANAB          CLOUDY    21  21 100 CALM      29.88R

$$

REGIONAL REPORTS     COLORADO/ARIZONA

CITY           SKY/WX    TMP DP  RH WIND       PRES   REMARKS
CRAIG, CO      CLOUDY    18  13  80 W9        29.77R WCI   7
GRAND JUNCTION LGT SNOW  25  25 100 CALM      29.76R FOG
RIFLE          CLOUDY    23  20  88 S3        29.75R
MONTROSE       CLOUDY    24  22  91 N7        29.75R WCI  16
CORTEZ         MOCLDY    16  14  92 N3        29.71R
PAGE, AZ       PTCLDY    32  13  45 W5        29.80R WCI  27
GRAND CANYON   PTCLDY    16  13  88 NW5       29.78R WCI   9
KINGMAN        CLEAR     23  14  68 CALM      29.93R
FLAGSTAFF      CLEAR     17  11  77 VRB6      29.75R WCI   9

$$

REGIONAL REPORTS    NEVADA/IDAHO/WYOMING

CITY           SKY/WX    TMP DP  RH WIND       PRES   REMARKS
LAS VEGAS, NV  PTCLDY    42  10  27 NW15G23   29.95R
ELY            CLOUDY    17  12  80 NW8       29.95R WCI   7
ELKO           CLOUDY    24  15  68 S5        30.03F WCI  18
POCATELLO, ID  PTCLDY     6   3  87 VRB3      30.01R
BURLEY         PTCLDY    17  11  77 CALM      30.01R
EVANSTON, WY   CLOUDY    14   9  80 NE6       29.81R WCI   5
ROCK SPRINGS   NOT AVBL

$$


USA.gov is the U.S. government's official web portal to all federal, state and local government web resources and services.